Regional Weather Roundup
Issued by NWS

Home | Current Version | Previous Version | Graphics & Text | Print | Product List | Glossary Off
Versions: 1 2 3 4 5 6 7 8 9 10 11 12 13 14 15 16 17 18 19 20 21 22 23 24 25 26 27 28 29 30 31 32 33 34 35 36 37 38 39 40 41 42 43 44 45 46 47 48 49 50

000
ASUS43 KDTX 252110
RWRMI
MICHIGAN HOURLY REGIONAL WEATHER ROUNDUP
NATIONAL WEATHER SERVICE DETROIT/PONTIAC MI
400 PM EST SUN JAN 25 2015

NOTE: "FAIR" INDICATES FEW OR NO CLOUDS BELOW 12,000 FEET WITH NO
SIGNIFICANT WEATHER AND/OR OBSTRUCTION TO VISIBILITY.

MIZ047>049-052>055-059>063-066>070-074>076-081>083-252200-
SOUTHEAST LOWER MICHIGAN

CITY           SKY/WX    TMP DP  RH WIND       PRES   REMARKS
ADRIAN         CLOUDY    25  17  72 E18G24    29.86R
ALMA           MOSUNNY   20  12  71 NE17      29.96R
ANN ARBOR      CLOUDY    25  14  63 E10G22    29.88R
BAD AXE        FLURRIES  19  12  74 NE9       29.99R
DETROIT CITY   PTSUNNY   24  10  55 NE16G22   29.93R
DETROIT        CLOUDY    24  14  65 NE14G22   29.91R
FLINT          PTSUNNY   24  10  55 NE16      29.94R
GROSSE ILE     CLOUDY    21  12  68 NE17G24   29.90R
HILLSDALE      LGT SNOW  24  20  82 NE14      29.82R
HOWELL         CLOUDY    23  12  62 NE8G16    29.88S

CITY           SKY/WX    TMP DP  RH WIND       PRES   REMARKS
JACKSON        CLOUDY    25  14  63 NE7G16    29.86R
LAMBERTVILLE   CLOUDY    27  14  59 E8        29.87R
LANSING        CLOUDY    23  13  65 NE16      29.91R
LAPEER         NOT AVBL
MASON          CLOUDY    23  13  65 NE13      29.89R
MONROE         CLOUDY    23  16  74 NE15G21   29.87R
MT. CLEMENS    CLOUDY    22   8  57 NE13      29.91R
PONTIAC        CLOUDY    22  10  60 N13       29.89R
PORT HOPE        N/A     20  10  65 N13G22    30.00R
PORT HURON     MOSUNNY   19  10  68 NE12G18   29.96R
TRI CITIES     CLOUDY    22  12  65 NE17      29.98R
YPSILANTI      CLOUDY    28  15  58 NE12      29.90R
$$
MIZ043>046-050>051-056>058-064>065-071>073-077>080-252200-
SOUTHWEST LOWER MICHIGAN

CITY           SKY/WX    TMP DP  RH WIND       PRES   REMARKS
BATTLE CREEK   CLOUDY    27  14  58 NE16      29.86R
BENTON HARBOR  CLOUDY    25  17  72 NE14G21   29.86R
BIG RAPIDS     SUNNY     22   7  53 E8        29.94R
COLDWATER      LGT SNOW  24  19  83 NE14      29.84R
HOLLAND        CLOUDY    25  11  55 NE15G23   29.91R
GRAND RAPIDS   PTSUNNY   22  12  65 E15G24    29.91R
KALAMAZOO      CLOUDY    26  14  60 NE12G21   29.86R
MARSHALL       CLOUDY    24  15  69 NE8G16    29.86R
MUSKEGON         N/A     25   9  50 NE16      29.93R
$$
MIZ016>042-252200-
NORTHERN LOWER MICHIGAN

CITY           SKY/WX    TMP DP  RH WIND       PRES   REMARKS
ALPENA         MOSUNNY   15   5  64 NE8       30.05R
BEAVER ISLAND  SUNNY     12  -4  48 CALM      30.07S
BELLAIRE       SUNNY     20   3  48 NE6       30.04R
CADILLAC       MOSUNNY   17   2  50 NE8       29.94R
CHARLEVOIX     SUNNY     14   8  75 N9        30.08R
FRANKFORT      PTCLDY    19   2  46 NE7       30.01S
GAYLORD        MOSUNNY   16   1  51 NE6       29.97R
GRAYLING       MOSUNNY   16   1  50 NE6       29.99S
HARBOR SPRINGS SUNNY     16   2  52 E5        30.04S
HOUGHTON LAKE  MOSUNNY   18   3  52 NE10      29.97R
MANISTEE       MOSUNNY   19   1  45 NE10      30.00S
OSCODA         FLURRIES  18   9  69 N8        30.03R
PELLSTON       SUNNY     16   3  56 E7        30.06R
TRAVERSE CITY  PTSUNNY   18   4  54 N6        30.02S
$$
MIZ007>008-015-252200-
EASTERN UPPER MICHIGAN

CITY           SKY/WX    TMP DP  RH WIND       PRES   REMARKS
KINROSS        SUNNY     18  -2  41 CALM      30.06S
MACKINAC ISLAN SUNNY     13  -2  50 NE3       30.06R
NEWBERRY       MOSUNNY   14  -2  48 NE3       30.05R
S. S. MARIE    SUNNY     10  -5  50 W5        30.07S
$$
MIZ004>006-011>014-085-252200-
CENTRAL UPPER MICHIGAN

CITY           SKY/WX    TMP DP  RH WIND       PRES   REMARKS
MANISTIQUE     SUNNY     18   6  59 CALM      30.05S
ESCANABA       SUNNY     19   7  58 NE7       30.05S
MENOMINEE      SUNNY     19   5  53 E10       30.05S
SAWYER-GWINN   CLOUDY    16   9  73 NE3       30.02S
$$
MIZ001>003-009>011-084-252200-
WESTERN UPPER MICHIGAN

CITY           SKY/WX    TMP DP  RH WIND       PRES   REMARKS
IRON MOUNTAIN  MOSUNNY   20   6  55 N7        30.02R
HOUGHTON       PTSUNNY   16   4  59 CALM      30.05S
COPPER HARBOR    N/A     17   5  59 CALM      30.09S
IRONWOOD       CLOUDY    18   7  62 CALM      30.00S
$$

ABBREVIATIONS USED IN REMARKS
   TC - TEMPERATURE IN CELSIUS
  WCI - WIND CHILL INDEX
   HX - HEAT INDEX
  VSB - VISIBILITY



USA.gov is the U.S. government's official web portal to all federal, state and local government web resources and services.